TimeEDT,TemperatureF,Dew PointF,Humidity,Sea Level PressureIn,VisibilityMPH,Wind Direction,Wind SpeedMPH,Gust SpeedMPH,PrecipitationIn,Events,Conditions,WindDirDegrees,DateUTC
12:15 AM,67.6,52.9,59,30.21,10.0,East,6.9,-,N/A,,Clear,80,2013-05-02 04:15:00
12:35 AM,67.3,52.5,59,30.21,10.0,ENE,5.8,-,N/A,,Clear,70,2013-05-02 04:35:00
12:55 AM,66.2,52.3,61,30.21,10.0,East,6.9,-,N/A,,Clear,90,2013-05-02 04:55:00
1:15 AM,64.4,52.3,65,30.21,10.0,East,5.8,-,N/A,,Clear,100,2013-05-02 05:15:00
1:35 AM,63.0,51.8,67,30.22,10.0,ESE,5.8,-,N/A,,Clear,110,2013-05-02 05:35:00
1:55 AM,62.4,51.4,67,30.22,10.0,ESE,5.8,-,N/A,,Clear,120,2013-05-02 05:55:00
2:15 AM,61.0,52.3,73,30.22,10.0,ESE,4.6,-,N/A,,Clear,110,2013-05-02 06:15:00
2:35 AM,60.8,52.0,73,30.21,10.0,ESE,5.8,-,N/A,,Clear,120,2013-05-02 06:35:00
2:55 AM,61.7,51.4,69,30.22,10.0,ESE,4.6,-,N/A,,Clear,120,2013-05-02 06:55:00
3:15 AM,61.3,51.6,70,30.22,10.0,Calm,Calm,-,N/A,,Clear,0,2013-05-02 07:15:00
3:35 AM,60.8,51.8,72,30.22,10.0,East,4.6,-,N/A,,Clear,100,2013-05-02 07:35:00
3:55 AM,59.5,51.8,76,30.22,10.0,East,5.8,-,N/A,,Clear,100,2013-05-02 07:55:00
4:15 AM,59.4,51.1,74,30.23,10.0,ESE,5.8,-,N/A,,Clear,120,2013-05-02 08:15:00
4:35 AM,59.9,50.9,72,30.23,10.0,SE,4.6,-,N/A,,Clear,130,2013-05-02 08:35:00
4:55 AM,58.8,50.4,73,30.23,10.0,SE,4.6,-,N/A,,Clear,130,2013-05-02 08:55:00
5:15 AM,58.5,50.0,73,30.23,10.0,SE,4.6,-,N/A,,Clear,130,2013-05-02 09:15:00
5:35 AM,57.6,49.6,75,30.24,10.0,SE,4.6,-,N/A,,Clear,130,2013-05-02 09:35:00
5:55 AM,57.2,49.5,75,30.24,10.0,ESE,3.5,-,N/A,,Clear,110,2013-05-02 09:55:00
6:15 AM,57.6,49.5,74,30.24,10.0,East,4.6,-,N/A,,Clear,90,2013-05-02 10:15:00
6:35 AM,57.0,49.3,75,30.24,10.0,East,4.6,-,N/A,,Clear,100,2013-05-02 10:35:00
6:55 AM,56.7,49.5,77,30.25,10.0,East,3.5,-,N/A,,Clear,100,2013-05-02 10:55:00
7:15 AM,57.4,50.0,76,30.25,10.0,East,5.8,-,N/A,,Clear,100,2013-05-02 11:15:00
7:50 AM,60.8,51.8,72,30.26,10.0,East,6.9,-,N/A,,Clear,100,2013-05-02 11:50:00
8:50 AM,62.6,50.0,63,30.27,10.0,ESE,11.5,-,N/A,,Clear,120,2013-05-02 12:50:00
9:50 AM,64.4,51.8,64,30.27,10.0,ESE,11.5,-,N/A,,Clear,110,2013-05-02 13:50:00
10:50 AM,68.0,51.8,56,30.26,10.0,SSE,11.5,-,N/A,,Clear,150,2013-05-02 14:50:00
11:50 AM,69.8,53.6,56,30.26,10.0,SE,11.5,-,N/A,,Clear,130,2013-05-02 15:50:00
12:50 PM,69.8,53.6,56,30.24,10.0,ESE,10.4,-,N/A,,Clear,120,2013-05-02 16:50:00
1:58 PM,71.6,55.4,57,30.22,10.0,SE,13.8,-,N/A,,Scattered Clouds,140,2013-05-02 17:58:00
2:55 PM,73.4,55.4,53,30.21,10.0,SSE,13.8,-,N/A,,Overcast,160,2013-05-02 18:55:00
4:55 PM,73.4,55.4,53,30.18,10.0,SSE,11.5,-,N/A,,Mostly Cloudy,160,2013-05-02 20:55:00
7:35 PM,70.0,55.4,60,30.15,10.0,SSE,3.5,-,N/A,,Clear,150,2013-05-02 23:35:00
7:55 PM,69.8,54.7,59,30.15,10.0,Calm,Calm,-,N/A,,Clear,0,2013-05-02 23:55:00
8:15 PM,68.5,55.2,62,30.14,10.0,Calm,Calm,-,N/A,,Clear,0,2013-05-03 00:15:00
8:35 PM,67.6,55.0,64,30.14,10.0,ESE,3.5,-,N/A,,Clear,110,2013-05-03 00:35:00
8:55 PM,67.8,54.7,63,30.14,10.0,ESE,3.5,-,N/A,,Clear,120,2013-05-03 00:55:00
9:15 PM,66.6,54.7,66,30.15,10.0,SE,3.5,-,N/A,,Clear,130,2013-05-03 01:15:00
9:35 PM,66.2,54.9,67,30.15,10.0,ESE,4.6,-,N/A,,Clear,110,2013-05-03 01:35:00
9:55 PM,65.3,55.2,70,30.15,10.0,ESE,5.8,-,N/A,,Clear,120,2013-05-03 01:55:00
10:15 PM,65.1,54.7,69,30.15,10.0,ESE,4.6,-,N/A,,Clear,120,2013-05-03 02:15:00
10:35 PM,64.8,54.7,70,30.15,10.0,ESE,5.8,-,N/A,,Clear,120,2013-05-03 02:35:00
10:55 PM,64.9,54.7,69,30.14,10.0,ESE,5.8,-,N/A,,Clear,120,2013-05-03 02:55:00
11:15 PM,64.6,54.5,70,30.14,10.0,SE,3.5,-,N/A,,Clear,140,2013-05-03 03:15:00
11:35 PM,64.8,54.1,68,30.14,10.0,SE,3.5,-,N/A,,Clear,140,2013-05-03 03:35:00
11:55 PM,64.2,53.8,69,30.14,10.0,Calm,Calm,-,N/A,,Clear,0,2013-05-03 03:55:00